Location: Campestrin
(46.4667°N, 11.7167°E)
Time: 03:05:14
(UTC+00:00)

Cosmos 1655 Rocket - Pass Details

Date: 18 April 2021
Orbit: 969 x 1007 km, 82.9° (Epoch: 16 May)

Event Time Altitude Azimuth Distance (km) Brightness Sun altitude
Rises 20:26:00 0° 350° (N) 3,711 7.9 -21.4°
Reaches altitude 10° 20:28:32 10° 349° (N) 2,752 7.1 -21.7°
Maximum altitude 20:34:50 78° 265° (W) 1,005 4.0 -22.5°
Enters shadow 20:37:47 34° 184° (S) 1,564 4.7 -22.8°
